Vorticity
nan nan nan nan nan nan nan nan nan nan nan nan nan nan nan nan nan nan nan nan nan nan nan nan nan nan nan nan nan nan nan nan nan nan nan nan nan nan nan nan nan nan nan nan nan nan nan nan nan nan nan nan nan nan nan nan nan nan nan nan nan nan nan nan nan nan nan nan nan
nan 10 10 8 7 8 9 10 10 10 10 10 11 10 9 9 9 9 9 9 10 11 10 10 12 12 12 9 7 7 7 7 7 6 6 6 7 7 7 7 8 8 8 8 8 8 8 9 9 9 8 8 8 9 9 10 8 8 7 7 8 9 10 9 9 10 11 11 nan
nan 9 9 8 8 8 8 9 11 11 10 10 11 11 10 10 9 9 10 11 12 11 10 10 11 11 9 7 6 7 8 8 7 6 6 6 7 7 8 7 7 7 7 7 8 9 9 9 9 8 8 8 8 8 9 9 8 7 7 8 9 9 9 9 10 11 11 11 nan
nan 8 9 11 11 8 6 9 13 10 7 7 10 10 9 9 10 11 11 11 9 9 10 11 10 9 8 8 9 9 10 9 8 7 6 7 7 7 8 8 7 7 7 8 8 9 9 9 9 8 9 9 8 8 9 9 9 8 8 10 10 9 8 8 10 10 9 10 nan
nan 8 10 12 10 7 7 12 13 8 6 7 9 9 9 9 11 11 10 9 8 10 12 12 9 10 10 11 10 9 8 7 6 6 7 8 7 7 7 8 8 7 8 8 8 8 9 9 10 9 9 8 8 8 9 9 9 8 8 10 10 9 8 8 9 9 8 8 nan
nan 9 11 12 10 8 10 13 12 7 7 10 13 12 11 11 12 13 11 10 11 12 11 8 8 9 10 9 8 7 6 5 6 8 8 7 7 7 7 7 8 8 8 8 8 9 9 10 10 9 9 9 9 9 10 9 8 8 8 9 10 9 8 8 8 8 8 6 nan
nan 10 11 12 11 11 12 12 9 8 8 11 14 13 12 13 15 14 11 10 10 9 7 6 8 9 9 8 7 7 7 8 8 8 8 7 7 7 7 7 8 8 9 9 9 9 9 9 9 8 8 9 10 10 10 8 7 7 7 9 10 9 9 9 9 8 7 6 nan
nan 11 11 12 12 12 12 10 8 8 9 13 15 13 12 13 13 11 8 7 8 7 6 8 11 10 9 8 8 8 8 8 8 7 7 7 7 7 7 7 8 8 9 9 9 9 9 9 9 8 8 8 9 10 10 9 7 6 6 8 9 9 8 9 9 8 8 8 nan
nan 11 11 12 12 12 11 10 10 11 13 16 15 12 10 10 9 6 4 5 7 8 8 11 12 10 10 9 8 7 7 7 7 7 8 7 7 7 7 7 7 8 9 9 9 9 9 9 9 8 8 7 7 8 9 9 6 6 6 8 8 7 7 8 8 8 8 8 nan
nan 10 10 10 11 11 10 10 11 12 13 13 12 11 9 8 5 4 4 7 9 10 10 11 11 9 8 7 7 7 7 6 7 7 7 7 7 7 7 7 7 8 8 9 9 9 9 9 8 8 8 7 8 8 9 8 6 5 6 7 6 6 7 8 9 9 9 8 nan
nan 9 9 10 10 9 9 9 9 10 11 11 9 8 7 5 5 6 8 11 12 11 10 10 9 8 7 5 7 7 7 7 8 8 7 7 7 7 7 8 7 7 8 9 9 9 9 8 8 8 7 8 9 10 10 8 6 6 6 6 6 6 7 8 9 10 9 9 nan
nan 10 10 11 10 9 8 7 8 10 10 10 7 6 5 6 8 9 10 11 10 8 7 9 9 8 6 6 7 7 8 8 9 8 7 7 7 7 8 8 8 8 8 9 9 9 9 8 7 7 7 8 9 9 9 8 6 6 7 7 7 7 7 8 9 9 9 8 nan
nan 10 10 10 9 8 7 7 8 9 9 8 6 6 6 8 9 9 9 8 7 7 8 9 9 7 7 8 8 8 8 8 8 8 8 8 8 8 8 8 8 8 9 10 10 9 8 8 7 6 6 7 7 8 8 8 7 7 7 7 8 7 7 8 9 9 8 8 nan
nan 10 10 9 8 7 7 7 7 9 9 8 6 7 7 8 8 7 7 7 7 7 8 9 8 8 9 10 9 9 9 8 8 8 8 8 8 8 8 8 8 8 9 10 10 9 8 7 7 6 5 5 6 7 8 9 8 8 7 8 7 7 7 8 9 9 8 7 nan
nan 9 9 8 7 7 7 6 6 9 9 7 6 7 7 7 8 8 9 8 7 7 8 9 8 9 10 10 10 9 8 8 8 8 7 8 8 8 8 8 8 9 9 9 10 9 8 7 7 6 6 5 6 7 8 9 9 9 8 8 8 7 8 8 9 9 8 7 nan
nan 9 9 9 8 8 8 6 7 9 9 7 8 7 7 8 9 9 9 7 6 8 10 10 9 8 9 9 9 8 8 8 8 7 7 7 8 8 8 8 8 8 8 9 9 9 9 8 8 7 7 6 6 7 8 9 9 10 9 9 8 8 8 8 8 8 8 7 nan
nan 9 9 10 10 9 9 9 10 11 11 10 9 8 8 9 10 10 9 7 8 10 11 9 9 9 9 8 8 7 7 8 7 7 6 7 7 7 7 7 8 8 8 8 8 8 8 8 9 9 8 8 8 8 8 9 10 10 10 10 10 9 8 8 8 8 8 7 nan
nan 9 10 10 10 10 10 11 12 13 11 9 8 8 9 11 11 10 10 9 11 11 10 8 9 10 9 9 8 8 8 8 7 7 7 7 7 7 7 7 8 9 8 8 7 7 7 8 9 9 10 10 9 9 10 10 11 11 11 11 10 10 9 8 8 7 7 6 nan
nan 9 10 10 10 10 10 10 10 10 9 7 8 10 11 12 11 11 11 10 11 10 9 8 9 9 10 9 9 9 8 8 7 7 8 8 7 7 7 7 8 9 8 8 7 7 7 8 9 9 9 10 10 10 11 11 11 12 12 11 11 10 9 8 8 7 6 6 nan
nan 9 10 10 9 9 9 8 8 8 8 9 11 12 12 11 11 11 10 10 9 9 9 8 9 9 9 8 8 8 8 8 8 8 8 8 8 8 8 8 9 9 9 8 8 8 8 8 9 9 9 10 10 11 11 12 12 12 11 11 11 10 9 8 7 7 6 6 nan
nan 9 10 10 10 9 8 8 8 8 9 11 11 11 10 10 9 9 9 9 9 9 9 9 9 9 8 8 8 7 7 8 8 8 8 8 8 8 8 8 8 9 9 8 8 9 9 8 9 9 10 11 11 11 11 11 11 11 10 10 10 9 8 8 7 6 6 6 nan
nan 10 10 10 10 9 9 8 9 9 10 11 10 10 9 9 8 8 8 9 9 9 8 8 8 8 8 8 7 7 7 8 9 9 9 8 8 8 9 9 8 8 8 8 9 9 9 10 10 11 12 13 13 12 11 10 10 10 10 9 8 8 8 8 7 6 6 6 nan
nan 9 9 8 10 10 9 8 9 10 10 10 9 9 8 8 8 9 9 10 9 8 7 6 6 7 7 8 7 7 7 9 9 10 9 9 8 9 9 9 8 8 8 9 10 10 10 11 13 14 14 13 13 12 11 11 10 10 10 9 8 8 8 7 7 6 6 6 nan
nan 9 8 9 11 9 8 8 9 9 9 9 9 8 8 8 8 9 9 9 9 8 7 7 7 7 7 7 7 8 8 9 9 9 10 9 9 9 10 9 9 9 10 9 6 5 6 10 13 15 15 13 12 12 12 12 11 10 9 9 8 7 7 7 6 6 6 7 nan
nan 10 10 12 10 9 9 9 9 9 9 8 8 8 8 8 8 8 9 8 8 8 8 9 9 8 7 7 8 8 8 7 7 8 8 9 9 10 10 9 9 10 10 6 2 2 4 7 11 14 15 14 12 12 12 12 11 10 9 8 7 6 6 7 7 7 7 8 nan
nan 10 10 10 10 9 10 9 9 9 9 8 8 8 7 7 7 8 8 8 8 8 8 8 8 9 9 8 8 8 8 7 7 7 7 7 8 9 10 9 10 10 8 3 2 4 6 8 9 12 15 15 12 11 11 12 12 11 9 8 7 6 5 5 7 8 8 8 nan
nan 9 9 10 10 10 9 9 9 9 8 8 8 7 7 8 8 9 8 7 7 7 7 7 7 7 7 7 8 8 9 9 8 7 7 7 7 8 9 9 10 8 4 0 3 7 9 9 10 11 15 16 15 13 12 12 13 11 10 8 7 6 5 5 7 8 8 8 nan
nan 9 10 10 10 9 9 9 9 9 8 8 8 8 8 9 9 9 7 7 7 7 6 6 7 6 6 7 7 7 8 9 9 9 8 7 7 7 8 8 8 4 1 1 6 9 9 10 10 11 13 16 18 16 14 13 12 11 9 8 7 7 7 7 8 8 8 9 nan
nan 10 10 9 9 9 9 9 8 8 8 7 8 8 9 9 8 7 7 7 7 7 7 7 7 8 8 8 7 7 7 9 9 9 8 8 8 8 7 7 7 3 1 4 9 9 10 10 9 10 10 15 20 19 16 13 10 9 8 7 7 7 8 8 7 7 7 8 nan
nan 9 9 9 8 8 8 8 8 7 7 7 8 8 8 7 7 7 7 7 7 7 8 8 9 9 9 8 8 8 8 9 9 8 7 7 7 7 7 8 8 5 2 5 8 9 9 9 9 9 9 13 21 22 18 12 9 7 7 7 7 7 8 8 8 7 6 4 nan
nan 9 9 8 8 8 8 8 8 8 8 9 9 8 7 7 7 7 6 6 6 7 8 9 9 9 9 8 8 8 8 9 9 8 7 6 6 7 8 9 8 5 2 4 7 8 9 9 9 9 8 14 22 23 17 10 7 6 6 6 7 8 8 10 9 7 5 3 nan
nan 9 9 8 8 8 8 8 8 9 9 9 8 8 8 8 7 6 6 6 6 6 7 8 8 8 8 9 9 9 8 9 9 8 8 7 7 7 8 9 9 6 2 4 7 9 9 9 9 8 8 14 22 23 17 10 8 8 8 8 9 9 8 7 7 6 6 5 nan
nan 9 9 9 8 8 8 8 8 8 8 8 8 8 8 7 7 7 7 7 7 7 7 7 7 7 7 8 8 8 9 9 8 8 8 9 9 8 8 10 10 5 1 3 8 9 9 9 9 8 8 16 24 22 15 10 9 9 9 9 10 10 10 7 5 5 6 7 nan
nan 9 9 8 8 7 7 7 8 8 8 8 8 8 8 7 7 7 7 7 8 8 7 7 7 7 7 7 7 7 7 8 8 9 10 10 9 8 9 10 7 0 -1 4 8 9 9 9 8 8 10 21 26 19 13 9 8 8 8 9 9 10 10 9 7 6 7 9 nan
nan 9 8 7 7 7 7 7 8 8 8 8 7 7 7 7 6 6 6 8 9 9 9 8 9 9 9 9 9 8 6 6 8 9 10 10 9 8 8 8 3 -2 -1 5 8 8 9 9 8 9 14 24 25 17 11 10 10 10 9 9 9 9 8 8 8 8 10 13 nan
nan 8 7 7 7 7 8 8 8 8 8 7 7 6 6 6 5 5 6 8 9 10 9 9 9 9 10 11 11 9 8 7 7 8 9 9 9 8 8 8 4 0 1 4 7 8 8 8 8 11 18 25 21 15 12 12 12 12 11 10 9 8 8 8 9 11 13 15 nan
nan 8 8 7 7 8 8 8 8 8 7 6 6 5 5 4 5 6 8 9 9 10 9 9 9 9 9 9 10 9 9 8 7 8 8 9 9 9 8 8 6 3 1 2 5 7 8 8 9 13 20 23 18 14 12 12 11 10 10 10 9 8 9 11 14 16 17 17 nan
nan 9 8 8 8 8 8 9 8 8 7 5 5 5 4 4 6 8 9 11 10 9 8 9 8 8 8 9 9 10 10 10 8 8 7 9 9 9 8 8 8 5 1 0 4 6 8 8 9 13 19 20 16 14 13 10 7 7 9 10 10 10 12 14 16 18 18 13 nan
nan 9 9 8 8 8 9 9 8 7 5 5 5 6 6 7 8 9 10 11 11 10 8 8 7 8 8 9 10 11 12 12 11 8 8 8 7 7 8 10 9 6 1 -1 3 6 8 8 9 11 18 21 18 14 11 8 6 7 10 11 11 12 15 17 17 16 14 6 nan
nan 9 9 9 9 9 8 8 7 6 6 6 6 6 7 8 9 9 10 11 11 10 9 8 7 8 8 10 11 10 11 13 13 10 8 7 6 6 10 13 10 7 2 1 2 5 7 8 9 12 20 22 17 14 11 9 8 9 10 11 11 13 16 18 15 10 7 4 nan
nan nan nan nan nan nan nan nan nan nan nan nan nan nan nan nan nan nan nan nan nan nan nan nan nan nan nan nan nan nan nan nan nan nan nan nan nan nan nan nan nan nan nan nan nan nan nan nan nan nan nan nan nan nan nan nan nan nan nan nan nan nan nan nan nan nan nan nan nan
CAPE
nan nan nan nan nan nan nan nan nan nan nan nan nan nan nan nan nan nan nan nan nan nan nan nan nan nan nan nan nan nan nan nan nan nan nan nan nan nan nan nan nan nan nan nan nan nan nan nan nan nan nan nan nan nan nan nan nan nan nan nan nan nan nan nan nan nan nan nan nan
nan nan nan nan nan nan nan nan nan nan nan nan nan nan nan nan nan nan nan nan nan nan nan nan nan nan nan nan nan nan nan nan nan nan nan nan nan nan nan nan nan nan nan nan nan nan nan nan nan nan nan nan nan nan nan nan nan nan nan nan nan nan nan nan nan nan nan nan nan
nan nan nan nan nan nan nan nan nan nan nan nan nan nan nan nan nan nan nan nan nan nan nan nan nan nan nan nan nan nan nan nan nan nan nan nan nan nan nan nan nan nan nan nan nan nan nan nan nan nan nan nan nan nan nan nan nan nan nan nan nan nan nan nan nan nan nan nan nan
nan nan nan nan nan nan nan nan nan nan nan nan nan nan nan nan nan nan nan nan nan nan nan nan nan nan nan nan nan nan nan nan nan nan nan nan nan nan nan nan nan nan nan nan nan nan nan nan nan nan nan nan nan nan nan nan nan nan nan nan nan nan nan nan nan nan nan nan nan
nan nan nan nan nan nan nan nan nan nan nan nan nan nan nan nan nan nan nan nan nan nan nan nan nan nan nan nan nan nan nan nan nan nan nan nan nan nan nan nan nan nan nan nan nan nan nan nan nan nan nan nan nan nan nan nan nan nan nan nan nan nan nan nan nan nan nan nan nan
nan nan nan nan nan nan nan nan nan nan nan nan nan nan nan nan nan nan nan nan nan nan nan nan nan nan nan nan nan nan nan nan nan nan nan nan nan nan nan nan nan nan nan nan nan nan nan nan nan nan nan nan nan nan nan nan nan nan nan nan nan nan nan nan nan nan nan nan nan
nan nan nan nan nan nan nan nan nan nan nan nan nan nan nan nan nan nan nan nan nan nan nan nan nan nan nan nan nan nan nan nan nan nan nan nan nan nan nan nan nan nan nan nan nan nan nan nan nan nan nan nan nan nan nan nan nan nan nan nan nan nan nan nan nan nan nan nan nan
nan nan nan nan nan nan nan nan nan nan nan nan nan nan nan nan nan nan nan nan nan nan nan nan nan nan nan nan nan nan nan nan nan nan nan nan nan nan nan nan nan nan nan nan nan nan nan nan nan nan nan nan nan nan nan nan nan nan nan nan nan nan nan nan nan nan nan nan nan
nan nan nan nan nan nan nan nan nan nan nan nan nan nan nan nan nan nan nan nan nan nan nan nan nan nan nan nan nan nan nan nan nan nan nan nan nan nan nan nan nan nan nan nan nan nan nan nan nan nan nan nan nan nan nan nan nan nan nan nan nan nan nan nan nan nan nan nan nan
nan nan nan nan nan nan nan nan nan nan nan nan nan nan nan nan nan nan nan nan nan nan nan nan nan nan nan nan nan nan nan nan nan nan nan nan nan nan nan nan nan nan nan nan nan nan nan nan nan nan nan nan nan nan nan nan nan nan nan nan nan nan nan nan nan nan nan nan nan
nan nan nan nan nan nan nan nan nan nan nan nan nan nan nan nan nan nan nan nan nan nan nan nan nan nan nan nan nan nan nan nan nan nan nan nan nan nan nan nan nan nan nan nan nan nan nan nan nan nan nan nan nan nan nan nan nan nan nan nan nan nan nan nan nan nan nan nan nan
nan nan nan nan nan nan nan nan nan nan nan nan nan nan nan nan nan nan nan nan nan nan nan nan nan nan nan nan nan nan nan nan nan nan nan nan nan nan nan nan nan nan nan nan nan nan nan nan nan nan nan nan nan nan nan nan nan nan nan nan nan nan nan nan nan nan nan nan nan
nan nan nan nan nan nan nan nan nan nan nan nan nan nan nan nan nan nan nan nan nan nan nan nan nan nan nan nan nan nan nan nan nan nan nan nan nan nan nan nan nan nan nan nan nan nan nan nan nan nan nan nan nan nan nan nan nan nan nan nan nan nan nan nan nan nan nan nan nan
nan nan nan nan nan nan nan nan nan nan nan nan nan nan nan nan nan nan nan nan nan nan nan nan nan nan nan nan nan nan nan nan nan nan nan nan nan nan nan nan nan nan nan nan nan nan nan nan nan nan nan nan nan nan nan nan nan nan nan nan nan nan nan nan nan nan nan nan nan
nan nan nan nan nan nan nan nan nan nan nan nan nan nan nan nan nan nan nan nan nan nan nan nan nan nan nan nan nan nan nan nan nan nan nan nan nan nan nan nan nan nan nan nan nan nan nan nan nan nan nan nan nan nan nan nan nan nan nan nan nan nan nan nan nan nan nan nan nan
nan nan nan nan nan nan nan nan nan nan nan nan nan nan nan nan nan nan nan nan nan nan nan nan nan nan nan nan nan nan nan nan nan nan nan nan nan nan nan nan nan nan nan nan nan nan nan nan nan nan nan nan nan nan nan nan nan nan nan nan nan nan nan nan nan nan nan nan nan
nan nan nan nan nan nan nan nan nan nan nan nan nan nan nan nan nan nan nan nan nan nan nan nan nan nan nan nan nan nan nan nan nan nan nan nan nan nan nan nan nan nan nan nan nan nan nan nan nan nan nan nan nan nan nan nan nan nan nan nan nan nan nan nan nan nan nan nan nan
nan nan nan nan nan nan nan nan nan nan nan nan nan nan nan nan nan nan nan nan nan nan nan nan nan nan nan nan nan nan nan nan nan nan nan nan nan nan nan nan nan nan nan nan nan nan nan nan nan nan nan nan nan nan nan nan nan nan nan nan nan nan nan nan nan nan nan nan nan
nan nan nan nan nan nan nan nan nan nan nan nan nan nan nan nan nan nan nan nan nan nan nan nan nan nan nan nan nan nan nan nan nan nan nan nan nan nan nan nan nan nan nan nan nan nan nan nan nan nan nan nan nan nan nan nan nan nan nan nan nan nan nan nan nan nan nan nan nan
nan nan nan nan nan nan nan nan nan nan nan nan nan nan nan nan nan nan nan nan nan nan nan nan nan nan nan nan nan nan nan nan nan nan nan nan nan nan nan nan nan nan nan nan nan nan nan nan nan nan nan nan nan nan nan nan nan nan nan nan nan nan nan nan nan nan nan nan nan
nan nan nan nan nan nan nan nan nan nan nan nan nan nan nan nan nan nan nan nan nan nan nan nan nan nan nan nan nan nan nan nan nan nan nan nan nan nan nan nan nan nan nan nan nan nan nan nan nan nan nan nan nan nan nan nan nan nan nan nan nan nan nan nan nan nan nan nan nan
nan nan nan nan nan nan nan nan nan nan nan nan nan nan nan nan nan nan nan nan nan nan nan nan nan nan nan nan nan nan nan nan nan nan nan nan nan nan nan nan nan nan nan nan nan nan nan nan nan nan nan nan nan nan nan nan nan nan nan nan nan nan nan nan nan nan nan nan nan
nan nan nan nan nan nan nan nan nan nan nan nan nan nan nan nan nan nan nan nan nan nan nan nan nan nan nan nan nan nan nan nan nan nan nan nan nan nan nan nan nan nan nan nan nan nan nan nan nan nan nan nan nan nan nan nan nan nan nan nan nan nan nan nan nan nan nan nan nan
nan nan nan nan nan nan nan nan nan nan nan nan nan nan nan nan nan nan nan nan nan nan nan nan nan nan nan nan nan nan nan nan nan nan nan nan nan nan nan nan nan nan nan nan nan nan nan nan nan nan nan nan nan nan nan nan nan nan nan nan nan nan nan nan nan nan nan nan nan
nan nan nan nan nan nan nan nan nan nan nan nan nan nan nan nan nan nan nan nan nan nan nan nan nan nan nan nan nan nan nan nan nan nan nan nan nan nan nan nan nan nan nan nan nan nan nan nan nan nan nan nan nan nan nan nan nan nan nan nan nan nan nan nan nan nan nan nan nan
nan nan nan nan nan nan nan nan nan nan nan nan nan nan nan nan nan nan nan nan nan nan nan nan nan nan nan nan nan nan nan nan nan nan nan nan nan nan nan nan nan nan nan nan nan nan nan nan nan nan nan nan nan nan nan nan nan nan nan nan nan nan nan nan nan nan nan nan nan
nan nan nan nan nan nan nan nan nan nan nan nan nan nan nan nan nan nan nan nan nan nan nan nan nan nan nan nan nan nan nan nan nan nan nan nan nan nan nan nan nan nan nan nan nan nan nan nan nan nan nan nan nan nan nan nan nan nan nan nan nan nan nan nan nan nan nan nan nan
nan nan nan nan nan nan nan nan nan nan nan nan nan nan nan nan nan nan nan nan nan nan nan nan nan nan nan nan nan nan nan nan nan nan nan nan nan nan nan nan nan nan nan nan nan nan nan nan nan nan nan nan nan nan nan nan nan nan nan nan nan nan nan nan nan nan nan nan nan
nan nan nan nan nan nan nan nan nan nan nan nan nan nan nan nan nan nan nan nan nan nan nan nan nan nan nan nan nan nan nan nan nan nan nan nan nan nan nan nan nan nan nan nan nan nan nan nan nan nan nan nan nan nan nan nan nan nan nan nan nan nan nan nan nan nan nan nan nan
nan nan nan nan nan nan nan nan nan nan nan nan nan nan nan nan nan nan nan nan nan nan nan nan nan nan nan nan nan nan nan nan nan nan nan nan nan nan nan nan nan nan nan nan nan nan nan nan nan nan nan nan nan nan nan nan nan nan nan nan nan nan nan nan nan nan nan nan nan
nan nan nan nan nan nan nan nan nan nan nan nan nan nan nan nan nan nan nan nan nan nan nan nan nan nan nan nan nan nan nan nan nan nan nan nan nan nan nan nan nan nan nan nan nan nan nan nan nan nan nan nan nan nan nan nan nan nan nan nan nan nan nan nan nan nan nan nan nan
nan nan nan nan nan nan nan nan nan nan nan nan nan nan nan nan nan nan nan nan nan nan nan nan nan nan nan nan nan nan nan nan nan nan nan nan nan nan nan nan nan nan nan nan nan nan nan nan nan nan nan nan nan nan nan nan nan nan nan nan nan nan nan nan nan nan nan nan nan
nan nan nan nan nan nan nan nan nan nan nan nan nan nan nan nan nan nan nan nan nan nan nan nan nan nan nan nan nan nan nan nan nan nan nan nan nan nan nan nan nan nan nan nan nan nan nan nan nan nan nan nan nan nan nan nan nan nan nan nan nan nan nan nan nan nan nan nan nan
nan nan nan nan nan nan nan nan nan nan nan nan nan nan nan nan nan nan nan nan nan nan nan nan nan nan nan nan nan nan nan nan nan nan nan nan nan nan nan nan nan nan nan nan nan nan nan nan nan nan nan 0 nan nan nan nan nan nan nan nan nan nan nan nan nan nan nan nan nan
nan nan nan nan nan nan nan nan nan nan nan nan nan nan nan nan nan nan nan nan nan nan nan nan nan nan nan nan nan nan nan nan nan nan nan nan nan nan nan nan nan nan nan nan nan nan nan nan nan nan 0 1 nan nan nan nan nan nan nan nan nan nan nan nan nan nan nan nan nan
nan nan nan nan nan nan nan nan nan nan nan nan nan nan nan nan nan nan nan nan nan nan nan nan nan nan nan nan nan nan nan nan nan nan nan nan nan nan nan nan nan nan nan nan nan nan nan nan nan nan 0 1 nan nan nan nan nan nan nan nan nan nan nan nan nan nan nan nan nan
nan nan nan nan nan nan nan nan nan nan nan nan nan nan nan nan nan nan nan nan nan nan nan nan nan nan nan nan nan nan nan nan nan nan nan nan nan nan nan nan nan nan nan nan nan nan nan nan nan nan 1 0 nan nan nan nan nan nan nan nan nan nan nan nan nan nan nan nan nan
nan nan nan nan nan nan nan nan nan nan nan nan nan nan nan nan nan nan nan nan nan nan nan nan nan nan nan nan nan nan nan nan nan nan nan nan nan nan nan nan nan nan nan nan nan nan nan nan 0 0 2 nan nan nan nan nan nan nan nan nan nan nan nan nan nan nan nan nan 6
nan nan nan nan nan nan nan nan nan nan nan nan nan nan nan nan nan nan nan nan nan nan nan nan nan nan nan nan nan nan nan nan nan nan nan nan nan nan nan nan nan nan nan nan nan nan nan nan 1 1 5 1 0 nan nan nan nan nan nan nan nan nan nan nan 0 0 4 16 30
nan nan nan nan nan nan nan nan nan nan nan nan nan nan nan nan nan nan nan nan nan nan nan nan nan nan nan nan nan nan nan nan nan nan nan nan nan nan nan nan nan nan nan nan nan nan nan 0 3 3 6 2 0 nan nan 0 nan nan nan nan 0 1 1 3 11 11 20 17 13
nan nan nan nan nan nan nan nan nan nan nan nan nan nan nan nan nan nan nan nan nan nan nan nan nan nan nan nan nan nan nan nan nan nan nan nan nan nan nan nan nan nan nan nan nan nan 0 1 4 4 8 1 0 1 1 1 0 nan nan 1 1 6 6 17 20 20 11 nan nan